Onweer radar Meer informatie blitzortung!


Regen radar Meer informatie rain snow radar


Bezoek onze andere website:

Template documentation
and downloads

And another site



15 daagse weersverwachting Ballerup (DK)

  • Overzicht
  • Per uur
  • 15 dagen
  • Extra
  • Vergelijk
  • Kaarten
  • Dagkaart
  • Meer »
  • Info
  • Statistieken
  • Directe link
    Temp 6h Neerslag Wind  
 05:12     21:24    Daglengte: 16:12 Vandaag
20:00
21°
 
4
 05:14     21:22    Daglengte: 16:08 Morgen
02:00
17°
0.4 mm
4
08:00
17°
 
6
14:00
18°
0.5 mm
8
20:00
18°
 
8
 05:15     21:20    Daglengte: 16:05 Vrijdag 30 Jul
02:00
16°
 
7
08:00
17°
 
8
14:00
22°
 
8
20:00
20°
2.6 mm
6
 05:17     21:18    Daglengte: 16:01 Zaterdag 31 Jul
02:00
16°
 
2
08:00
17°
14.9 mm
3
14:00
18°
15.4 mm
5
Locatie info
Region: Hovedstaden
Latitude: 55.7301°N
Longitude: 12.3610°E
34 masl
Postcode: 2750
Temp/Neerslag /Baro Onweer/Dauwpunt
    Temp Baro 1h Neerslag Dauwpunt Wind UV Bewolking  
 05:12     21:24    Daglengte: 16:12 Vandaag
19:00
22°
1007.1 hPa
14%
12.1°
4
Windvlaag: 5.9 m/s
13%
20:00
21°
1006.8 hPa
23%
12.2°
4
Windvlaag: 4.7 m/s
16%
21:00
20°
1006.8 hPa
26%
13.3°
3
Windvlaag: 4.5 m/s
13%
22:00
19°
1006.7 hPa
34%
14.3°
3
Windvlaag: 5.2 m/s
66%
23:00
19°
1006.6 hPa 0.4 mm
77%
14.7°
3
Windvlaag: 6.2 m/s
32%
 05:14     21:22    Daglengte: 16:08 Morgen
00:00
18°
1006.4 hPa
24%
15.4°
4
Windvlaag: 7.1 m/s
10%
01:00
17°
1006.1 hPa
22%
15.9°
4
Windvlaag: 7.1 m/s
13%
02:00
17°
1005.7 hPa
20%
15.7°
4
Windvlaag: 7.1 m/s
25%
03:00
17°
1005.3 hPa
22%
15.2°
4
Windvlaag: 7.3 m/s
7%
04:00
16°
1005.0 hPa
22%
14.6°
4
Windvlaag: 7.2 m/s
9%
05:00
16°
1004.6 hPa
23%
14.3°
4
Windvlaag: 7.3 m/s
24%
06:00
16°
1004.4 hPa
14%
14.0°
5
Windvlaag: 8.4 m/s
6%
07:00
17°
1004.2 hPa
14%
13.9°
5
Windvlaag: 8.5 m/s
7%
08:00
17°
1003.7 hPa
21%
13.9°
6
Windvlaag: 9.7 m/s
13%
09:00
18°
1003.4 hPa
32%
12.7°
7
Windvlaag: 10.9 m/s
22%
10:00
18°
1003.2 hPa
82%
10.6°
8
Windvlaag: 11.5 m/s
44%
11:00
18°
1003.2 hPa 0.5 mm
82%
12.9°
8
Windvlaag: 10.7 m/s
34%
12:00
18°
1003.2 hPa
40%
13.1°
8
Windvlaag: 11.2 m/s
15%
13:00
18°
1003.1 hPa
70%
13.2°
8
Windvlaag: 11 m/s
14%
14:00
18°
1003.1 hPa
72%
13.1°
8
Windvlaag: 10.8 m/s
10%
15:00
19°
1002.9 hPa
69%
12.3°
9
Windvlaag: 10.6 m/s
13%
16:00
19°
1002.7 hPa
79%
12.0°
9
Windvlaag: 10.7 m/s
33%
17:00
19°
1002.5 hPa
78%
12.0°
9
Windvlaag: 10.7 m/s
14%
18:00
19°
1002.6 hPa
38%
13.0°
9
Windvlaag: 10.5 m/s
13%
19:00
18°
1002.6 hPa
38%
13.7°
8
Windvlaag: 9.3 m/s
9%
20:00
18°
1002.8 hPa
33%
12.6°
8
Windvlaag: 9.4 m/s
9%
21:00
17°
1003.0 hPa
25%
12.1°
7
Windvlaag: 8.5 m/s
5%
22:00
16°
1003.1 hPa
25%
12.5°
7
Windvlaag: 8.1 m/s
5%
23:00
16°
1003.4 hPa
20%
12.2°
7
Windvlaag: 8.3 m/s
10%
 05:15     21:20    Daglengte: 16:05 Vrijdag 30 Jul
00:00
16°
1003.4 hPa
15%
12.4°
7
Windvlaag: 7.8 m/s
51%
01:00
16°
1003.1 hPa
16%
12.7°
7
Windvlaag: 8.4 m/s
20%
02:00
16°
1003.0 hPa
14%
12.0°
7
Windvlaag: 8.6 m/s
10%
03:00
16°
1002.6 hPa
14%
11.8°
6
Windvlaag: 8.2 m/s
11%
04:00
16°
1002.1 hPa
14%
11.6°
6
Windvlaag: 7.5 m/s
10%
05:00
16°
1001.6 hPa
14%
11.8°
6
Windvlaag: 7.8 m/s
11%
06:00
16°
1001.1 hPa
17%
12.4°
6
Windvlaag: 7.8 m/s
11%
07:00
16°
1001.0 hPa
17%
13.0°
7
Windvlaag: 8.4 m/s
14%
08:00
17°
1001.1 hPa
22%
13.3°
8
Windvlaag: 8.8 m/s
38%
09:00
18°
1001.2 hPa
28%
13.5°
8
Windvlaag: 8 m/s
13%
10:00
19°
1001.3 hPa
24%
12.9°
9
Windvlaag: 7.6 m/s
17%
11:00
20°
1001.7 hPa
24%
13.3°
9
Windvlaag: 6.6 m/s
39%
12:00
21°
1001.9 hPa
24%
13.8°
8
Windvlaag: 6.5 m/s
14%
13:00
21°
1002.1 hPa
23%
13.8°
8
Windvlaag: 6.9 m/s
13%
14:00
22°
1002.1 hPa
18%
13.2°
8
Windvlaag: 6.8 m/s
37%
15:00
22°
1002.0 hPa
19%
12.8°
8
Windvlaag: 6.3 m/s
13%
16:00
22°
1002.3 hPa
22%
12.3°
8
Windvlaag: 6 m/s
66%
17:00
21°
1001.4 hPa 2.6 mm
24%
12.6°
7
Windvlaag: 5.4 m/s
81%
18:00
21°
1001.5 hPa
24%
11.5°
7
Windvlaag: 6.5 m/s
63%
19:00
21°
1001.6 hPa
27%
12.3°
7
Windvlaag: 6.2 m/s
72%
20:00
20°
1001.7 hPa
34%
12.7°
6
Windvlaag: 5.4 m/s
32%
21:00
19°
1001.8 hPa
30%
12.5°
5
Windvlaag: 4.9 m/s
27%
22:00
18°
1001.8 hPa
21%
12.3°
4
Windvlaag: 4.4 m/s
58%
23:00
17°
1001.7 hPa
21%
12.3°
3
Windvlaag: 4.3 m/s
48%
 05:17     21:18    Daglengte: 16:01 Zaterdag 31 Jul
00:00
16°
1001.4 hPa
21%
10.9°
3
Windvlaag: 4 m/s
24%
01:00
16°
1001.1 hPa
21%
10.2°
3
Windvlaag: 4.3 m/s
76%
02:00
16°
1000.7 hPa
28%
10.4°
2
Windvlaag: 3.6 m/s
45%
03:00
15°
1000.3 hPa 2.3 mm
21%
10.5°
2
Windvlaag: 3.9 m/s
64%
04:00
15°
999.8 hPa 2.3 mm
21%
11.3°
2
Windvlaag: 4.6 m/s
81%
05:00
15°
999.3 hPa 2.4 mm
21%
12.3°
2
Windvlaag: 5.1 m/s
91%
06:00
15°
998.9 hPa 3.1 mm
82%
12.6°
1
Windvlaag: 5.6 m/s
92%
07:00
16°
998.4 hPa 2.8 mm
100%
13.4°
2
Windvlaag: -0.2 m/s
93%
08:00
17°
998.0 hPa 2.0 mm
100%
14.4°
3
Windvlaag: -1.8 m/s
76%
09:00
18°
997.8 hPa 1.4 mm
100%
12.9°
3
Windvlaag: 0.3 m/s
80%
10:00
18°
997.7 hPa 1.9 mm
100%
12.0°
4
Windvlaag: 0.7 m/s
72%
11:00
19°
998.0 hPa 2.9 mm
100%
12.4°
4
Windvlaag: -0 m/s
82% warningclass
12:00
19°
998.3 hPa 3.0 mm
100%
12.9°
4
Windvlaag: -0.1 m/s
64%
13:00
18°
998.6 hPa 3.0 mm
100%
16.2°
5
Windvlaag: 2.9 m/s
81% warningclass
14:00
18°
998.8 hPa 3.1 mm
100%
14.1°
5
Windvlaag: 2.9 m/s
96%
15:00
18°
998.7 hPa 5.5 mm
100%
13.6°
4
Windvlaag: 9 m/s
97% warningclass
16:00
18°
998.6 hPa 5.2 mm
100%
12.7°
4
Windvlaag: 9 m/s
18%
17:00
19°
998.5 hPa 5.1 mm
100%
7.6°
5
Windvlaag: 9.1 m/s
34%
18:00
19°
998.6 hPa 5.1 mm
100%
7.5°
5
Windvlaag: 9.6 m/s
14%
Temp/Neerslag /Baro Onweer/Dauwpunt
    Temp Baro Neerslag Dauwpunt Wind Bewolking  
 05:12     21:24    Daglengte: 16:12 Vandaag
20:00
21°
1006.8 hPa   12.2°
4
16%
23:00
19°
1006.6 hPa 0.4 mm 14.7°
3
32%
 05:14     21:22    Daglengte: 16:08 Morgen
02:00
17°
1005.7 hPa   15.7°
4
25%
05:00
16°
1004.6 hPa   14.3°
4
24%
08:00
17°
1003.7 hPa   13.9°
6
13%
11:00
18°
1003.2 hPa 0.5 mm 12.9°
8
34%
14:00
18°
1003.1 hPa   13.1°
8
10%
17:00
19°
1002.5 hPa   12.0°
9
14%
20:00
18°
1002.8 hPa   12.6°
8
9%
23:00
16°
1003.4 hPa   12.2°
7
10%
 05:15     21:20    Daglengte: 16:05 Vrijdag 30 Jul
02:00
16°
1003.0 hPa   12.0°
7
10%
05:00
16°
1001.6 hPa   11.8°
6
11%
08:00
17°
1001.1 hPa   13.3°
8
38%
11:00
20°
1001.7 hPa   13.3°
9
39%
14:00
22°
1002.1 hPa   13.2°
8
37%
17:00
21°
1001.4 hPa 2.6 mm 12.6°
7
81%
20:00
20°
1001.7 hPa   12.7°
6
32%
23:00
17°
1001.7 hPa   12.3°
3
48%
 05:17     21:18    Daglengte: 16:01 Zaterdag 31 Jul
02:00
16°
1000.7 hPa   10.4°
2
45%
05:00
15°
999.3 hPa 7.0 mm 12.3°
2
91%
08:00
17°
998.0 hPa 7.9 mm 14.4°
3
76%
11:00
19°
998.0 hPa 6.3 mm 12.4°
4
82% warningclass
14:00
18°
998.8 hPa 9.1 mm 14.1°
5
96%
17:00
19°
998.5 hPa 15.8 mm 7.6°
5
34%
20:00
18°
999.3 hPa 13.1 mm 9.2°
5
69%
23:00
16°
1002.1 hPa 14.6 mm -9.6°
7
20%
 05:19     21:16    Daglengte: 15:57 Zondag 01 Aug
02:00
15°
1003.0 hPa 14.7 mm -10.2°
6
26%
05:00
15°
1003.1 hPa 14.7 mm -11.5°
6
26%
08:00
15°
1003.9 hPa 14.7 mm -11.4°
5
26%
11:00
17°
1004.8 hPa 14.8 mm -11.0°
6
18%
14:00
19°
1004.3 hPa 15.0 mm -10.3°
5
13%
17:00
20°
1005.0 hPa 15.1 mm -10.5°
5
16%
20:00
18°
1005.0 hPa 15.1 mm -10.0°
4
24%
23:00
16°
1005.0 hPa 7.7 mm -10.2°
4
26%
 05:21     21:14    Daglengte: 15:53 Maandag 02 Aug
02:00
14°
1005.0 hPa 7.8 mm -9.5°
3
22%
05:00
12°
1004.8 hPa 15.2 mm -9.5°
4
13%
08:00
15°
1004.5 hPa 15.3 mm -9.0°
6
12%
11:00
16°
1004.7 hPa 8.8 mm -7.5°
8
19%
14:00
16°
1004.3 hPa 10.0 mm -7.7°
7
22%
17:00
17°
1006.1 hPa 10.9 mm -8.5°
7
14%
20:00
16°
1007.0 hPa 11.0 mm -8.0°
6
12%
23:00
14°
1008.1 hPa 22.0 mm -8.7°
5
12%
 05:23     21:12    Daglengte: 15:49 Dinsdag 03 Aug
02:00
13°
1009.1 hPa 22.0 mm -9.0°
5
12%
05:00
13°
1009.2 hPa 11.3 mm -10.1°
5
18%
08:00
14°
1011.0 hPa 22.4 mm -10.1°
4
26%
11:00
15°
1011.7 hPa 22.6 mm -11.3°
5
25%
14:00
17°
1011.2 hPa 11.4 mm -10.5°
6
26%
17:00
18°
1011.2 hPa 22.6 mm -10.4°
6
26%
20:00
17°
1012.1 hPa 22.7 mm 9.9°
4
1%
23:00
15°
1013.4 hPa 22.9 mm 10.6°
4
1%
 05:25     21:10    Daglengte: 15:45 Woensdag 04 Aug
02:00
14°
1014.1 hPa 22.9 mm 10.0°
4
1%
05:00
14°
1014.5 hPa 22.9 mm 10.0°
3
1%
08:00
15°
1015.3 hPa 22.9 mm 10.6°
4
1%
11:00
19°
1015.3 hPa 22.9 mm 9.1°
3
1%
14:00
22°
1015.0 hPa 22.9 mm 7.8°
4
1%
17:00
21°
1014.8 hPa   9.5°
4
1%
20:00
20°
1014.8 hPa 46.1 mm 11.3°
3
1%
 05:26     21:08    Daglengte: 15:42 Donderdag 05 Aug
02:00
16°
1015.4 hPa 46.3 mm 11.5°
3
1%
08:00
19°
1014.4 hPa 46.4 mm 12.2°
4
1%
14:00
23°
1013.1 hPa 46.5 mm 9.7°
7
1%
20:00
21°
1010.9 hPa 46.5 mm 11.9°
6
1%
 05:28     21:06    Daglengte: 15:38 Vrijdag 06 Aug
02:00
20°
1007.9 hPa 46.5 mm 13.3°
7
1%
08:00
19°
1006.4 hPa 46.7 mm 14.8°
4
1%
14:00
16°
1007.4 hPa 53.1 mm 14.7°
3
1%
20:00
17°
1007.1 hPa 61.1 mm 13.7°
3
1%
 05:30     21:03    Daglengte: 15:33 Zaterdag 07 Aug
02:00
14°
1007.3 hPa 61.2 mm 12.5°
3
1%
08:00
16°
1005.7 hPa 0.5 mm 13.3°
1
76%
14:00
19°
1006.1 hPa 1.1 mm 13.0°
2
74%
20:00
18°
1006.3 hPa 1.4 mm 13.6°
3
60%
 05:32     21:01    Daglengte: 15:29 Zondag 08 Aug
02:00
16°
1007.5 hPa 0.7 mm 13.1°
3
52%
08:00
17°
1008.1 hPa 0.8 mm 13.1°
3
50%
14:00
20°
1009.6 hPa 1.1 mm 12.8°
4
56%
20:00
19°
1010.5 hPa 1.4 mm 13.6°
4
56%
 05:34     20:59    Daglengte: 15:25 Maandag 09 Aug
02:00
16°
1011.9 hPa 0.7 mm 13.2°
4
55%
08:00
17°
1011.8 hPa 0.8 mm 13.5°
4
62%
14:00
20°
1012.6 hPa 1.3 mm 13.5°
5
63%
20:00
19°
1012.9 hPa 0.7 mm 13.3°
4
63%
 05:36     20:57    Daglengte: 15:21 Dinsdag 10 Aug
02:00
16°
1013.3 hPa 0.4 mm 13.2°
3
57%
08:00
17°
1012.3 hPa 0.8 mm 13.0°
3
64%
14:00
20°
1012.4 hPa 1.4 mm 12.8°
4
62%
20:00
19°
1012.2 hPa 0.8 mm 12.9°
3
57%
 05:38     20:55    Daglengte: 15:17 Woensdag 11 Aug
02:00
16°
1012.8 hPa 0.4 mm 12.8°
3
55%
08:00
16°
1012.5 hPa 0.7 mm 13.0°
4
57%
14:00
19°
1012.4 hPa 1.4 mm 13.0°
4
64%
20:00
18°
1012.1 hPa 1.2 mm 13.0°
4
61%
 05:40     20:52    Daglengte: 15:12 Donderdag 12 Aug
02:00
16°
1012.5 hPa 0.5 mm 13.0°
4
55%
08:00
16°
1012.3 hPa   12.9°
5
61%
14:00
19°
1012.6 hPa 0.8 mm 12.4°
5
60%
  CAPE Lifted Index Hail Supercell Tornado SRH 3km CL BTM PRES CL TOP PRES Swiss DWD icon SMHI TS
 05:12     21:24    Daglengte: 16:12 Vandaag
19:00 182 J/kg -0.8 K 0 % 0 % 0 % 0 m²/s² 0 0 0.82 2
20:00 346 J/kg -1.5 K 0 % 0 % 0 % 0 m²/s² 0 0 -0.48 2
21:00 330 J/kg -1.7 K 0 % 0 % 0 % 0 m²/s² 0 0 -0.35 2
22:00 321 J/kg -1.2 K 0 % 0 % 0 % 0 m²/s² 0 0 0.66 3
23:00 313 J/kg -1.1 K 0 % 0 % 0 % 0 m²/s² 0 0 0.64 3
 05:14     21:22    Daglengte: 16:08 Morgen
00:00 447 J/kg -2.1 K 0 % 0 % 0 % 0 m²/s² 0 0 -0.93 2
01:00 420 J/kg -1.8 K 0 % 0 % 0 % 0 m²/s² 0 0 0.24 2
02:00 247 J/kg -1.5 K 0 % 0 % 0 % 0 m²/s² 0 0 0.48 2
03:00 66 J/kg 0.8 K 0 % 0 % 0 % 0 m²/s² 0 0 3.26 2
04:00 49 J/kg 1.6 K 0 % 0 % 0 % 0 m²/s² 0 0 4.42 2
05:00 285 J/kg -0.1 K 0 % 0 % 0 % 0 m²/s² 0 0 3.47 3
06:00 258 J/kg 0.3 K 0 % 0 % 0 % 0 m²/s² 0 0 4.26 2
07:00 321 J/kg 0.1 K 0 % 0 % 0 % 0 m²/s² 0 0 1 1
08:00 554 J/kg -1.5 K 0 % 0 % 0 % 0 m²/s² 0 0 0.36 2
09:00 390 J/kg 0.3 K 0 % 0 % 0 % 0 m²/s² 0 0 4.83 2
10:00 413 J/kg 0.4 K 0 % 0 % 0 % 0 m²/s² 0 0 2.44 3
11:00 428 J/kg -0.1 K 0 % 0 % 0 % 0 m²/s² 0 0 2.87 2
12:00 379 J/kg -1.3 K 0 % 0 % 0 % 0 m²/s² 0 0 0.62 2
13:00 113 J/kg 0.3 K 0 % 0 % 0 % 0 m²/s² 0 0 0.81 2
14:00 353 J/kg -1.4 K 0 % 0 % 0 % 0 m²/s² 0 0 -0.41 2
15:00 213 J/kg -0.2 K 0 % 0 % 0 % 0 m²/s² 0 0 1.27 2
16:00 161 J/kg -0.3 K 0 % 0 % 0 % 0 m²/s² 0 0 0.57 2
17:00 233 J/kg -0.8 K 0 % 0 % 0 % 0 m²/s² 0 0 0.01 2
18:00 268 J/kg -0.9 K 0 % 0 % 0 % 0 m²/s² 0 0 -0.21 2
19:00 279 J/kg -0.7 K 0 % 0 % 0 % 0 m²/s² 0 0 0.02 2
20:00 184 J/kg -0.5 K 0 % 0 % 0 % 0 m²/s² 0 0 0.55 2
21:00 144 J/kg -0.7 K 0 % 0 % 0 % 0 m²/s² 0 0 0.92 2
22:00 47 J/kg -0.5 K 0 % 0 % 0 % 0 m²/s² 0 0 1.51 2
23:00 0 J/kg -0.5 K 0 % 0 % 0 % 0 m²/s² 0 0 2.35 2
 05:15     21:20    Daglengte: 16:05 Vrijdag 30 Jul
00:00 0 J/kg 0.7 K 0 % 0 % 0 % 0 m²/s² 0 0 4.42 2
01:00 6 J/kg 1.1 K 0 % 0 % 0 % 0 m²/s² 0 0 5.24 2
02:00 38 J/kg 1.3 K 0 % 0 % 0 % 0 m²/s² 0 0 4.87 2
03:00 56 J/kg 1.5 K 0 % 0 % 0 % 0 m²/s² 0 0 3.45 2
04:00 16 J/kg 1.7 K 0 % 0 % 0 % 0 m²/s² 0 0 2.12 2
05:00 0 J/kg 0.5 K 0 % 0 % 0 % 0 m²/s² 0 0 0.74 1
06:00 0 J/kg -1.2 K 0 % 0 % 0 % 0 m²/s² 0 0 -0.81 2
07:00 125 J/kg -1.4 K 0 % 0 % 0 % 0 m²/s² 0 0 -1.1 2
08:00 348 J/kg -1.3 K 0 % 0 % 0 % 0 m²/s² 0 0 -0.82 2
09:00 474 J/kg -1.7 K 0 % 0 % 0 % 0 m²/s² 0 0 -0.47 2
10:00 460 J/kg -1.3 K 0 % 0 % 0 % 0 m²/s² 0 0 0.08 2
11:00 346 J/kg -0.9 K 0 % 0 % 0 % 0 m²/s² 0 0 0.96 2
12:00 217 J/kg 0.2 K 0 % 0 % 0 % 0 m²/s² 0 0 2.18 2
13:00 189 J/kg 0.5 K 0 % 0 % 0 % 0 m²/s² 0 0 2.75 2
14:00 183 J/kg 0.7 K 0 % 0 % 0 % 0 m²/s² 0 0 2.71 3
15:00 177 J/kg 0.6 K 0 % 0 % 0 % 0 m²/s² 0 0 2.07 3
16:00 96 J/kg 0.7 K 0 % 0 % 0 % 0 m²/s² 0 0 2.47 3
17:00 56 J/kg 0.4 K 0 % 0 % 0 % 0 m²/s² 0 0 2.29 2
18:00 25 J/kg 0.8 K 0 % 0 % 0 % 0 m²/s² 0 0 3.38 2
19:00 38 J/kg 0.4 K 0 % 0 % 0 % 0 m²/s² 0 0 4.51 2
20:00 35 J/kg 0.7 K 0 % 0 % 0 % 0 m²/s² 0 0 5.23 2
21:00 11 J/kg 0.4 K 0 % 0 % 0 % 0 m²/s² 0 0 4.39 1
22:00 0 J/kg 0.6 K 0 % 0 % 0 % 0 m²/s² 0 0 4.59 3
23:00 0 J/kg 1.3 K 0 % 0 % 0 % 0 m²/s² 0 0 2.5 2
 05:17     21:18    Daglengte: 16:01 Zaterdag 31 Jul
00:00 0 J/kg 1.9 K 0 % 0 % 0 % 0 m²/s² 0 0 2.02 2
01:00 0 J/kg 2.3 K 0 % 0 % 0 % 0 m²/s² 0 0 3.14 2
02:00 0 J/kg 0.3 K 0 % 0 % 0 % 0 m²/s² 0 0 1.23 2
03:00 0 J/kg 0.0 K 0 % 0 % 0 % 0 m²/s² 0 0 1.86 3
04:00 0 J/kg 0.8 K 0 % 0 % 0 % 0 m²/s² 0 0 3.98 2
05:00 0 J/kg 0.6 K 0 % 0 % 0 % 0 m²/s² 0 0 1.47 3
06:00 0 J/kg -0.4 K 0 % 0 % 0 % 0 m²/s² 0 0 0.14 2
07:00 305 J/kg -2.2 K 0 % 0 % 0 % 0 m²/s² 0 0 -1.33 2
08:00 821 J/kg -3.1 K 0 % 0 % 0 % 0 m²/s² 0 0 -1.78 2
09:00 716 J/kg -2.8 K 0 % 0 % 0 % 0 m²/s² 0 0 -1.63 3
10:00 554 J/kg -2.2 K 0 % 0 % 0 % 0 m²/s² 0 0 -1.18 2
11:00 664 J/kg -2.8 K 0 % 0 % 0 % 0 m²/s² 0 0 -2.02 3
12:00 692 J/kg -2.9 K 0 % 0 % 0 % 0 m²/s² 0 0 -1.79 2
13:00 541 J/kg -2.7 K 0 % 0 % 0 % 0 m²/s² 0 0 -2.37 80
14:00 600 J/kg -2.6 K 0 % 0 % 0 % 0 m²/s² 0 0 -1.49 80
15:00 643 J/kg -2.8 K 0 % 0 % 0 % 0 m²/s² 0 0 -1.57 95
16:00 846 J/kg -3.2 K 0 % 0 % 0 % 0 m²/s² 0 0 -1.97 80
17:00 27 J/kg 0.3 K 0 % 0 % 0 % 0 m²/s² 0 0 1.74 80
18:00 1 J/kg 0.8 K 0 % 0 % 0 % 0 m²/s² 0 0 2.09 2
Temp Baro Wind Neerslag
  EWN Forecast EWN WRFDA DWD ICON FMI HIRLAM MET Norway GFSWXSIM
 05:12     21:24    Daglengte: 16:12 Vandaag
20:00 21.4° 1006.8 hPa 3.6 m/s 0.0 mm 22.7° 1006.2 hPa 5.2 m/s 0.7 mm 21.3° 1006.9 hPa 3.4 m/s -2.0 mm 22.0° 1006.9 hPa 4.3 m/s 0.0 mm 21.1° 1006.6 hPa 5.1 m/s 22.9° 1007.0 hPa 3.0 m/s 0.0 mm
23:00 18.5° 1006.6 hPa 3.5 m/s 0.4 mm 19.8° 1006.1 hPa 3.6 m/s 1.0 mm 17.7° 1007.0 hPa 3.0 m/s 0.1 mm 19.6° 1006.5 hPa 3.5 m/s 0.0 mm 17.0° 1006.6 hPa 3.5 m/s 17.5° 1006.0 hPa 4.0 m/s 0.0 mm
 05:14     21:22    Daglengte: 16:08 Morgen
02:00 17.1° 1005.7 hPa 4.3 m/s 0.0 mm 16.3° 1005.3 hPa 2.6 m/s 3.8 mm 16.6° 1005.9 hPa 3.6 m/s 0.0 mm 17.5° 1005.8 hPa 4.8 m/s 0.0 mm 15.9° 1005.6 hPa 4.0 m/s 15.4° 1006.0 hPa 5.0 m/s 0.0 mm
05:00 16.2° 1004.6 hPa 4.3 m/s 0.0 mm 15.3° 1003.7 hPa 4.0 m/s 3.9 mm 15.9° 1005.1 hPa 3.3 m/s 0.0 mm 16.7° 1004.7 hPa 4.7 m/s 0.0 mm 15.4° 1004.7 hPa 4.9 m/s 14.5° 1005.0 hPa 6.0 m/s 0.0 mm
08:00 17.2° 1003.7 hPa 6.0 m/s 0.0 mm 17.8° 1003.0 hPa 6.1 m/s 4.3 mm 17.6° 1004.0 hPa 5.8 m/s 0.0 mm 17.1° 1003.7 hPa 6.6 m/s 0.0 mm 17.4° 1003.9 hPa 8.1 m/s 15.2° 1004.0 hPa 8.0 m/s 0.0 mm
11:00 17.8° 1003.2 hPa 7.7 m/s 0.5 mm 19.4° 1002.3 hPa 8.4 m/s 5.8 mm 17.7° 1003.9 hPa 7.8 m/s 0.1 mm 18.0° 1002.3 hPa 7.3 m/s 0.0 mm 17.4° 1004.2 hPa 9.2 m/s 18.4° 1004.0 hPa 9.0 m/s 0.0 mm
14:00 17.9° 1003.1 hPa 8.5 m/s 0.0 mm 17.5° 1002.7 hPa 7.4 m/s 7.6 mm 19.7° 1003.7 hPa 7.8 m/s 0.1 mm 17.7° 1001.6 hPa 9.1 m/s 0.0 mm 19.1° 1004.0 hPa 10.4 m/s 18.4° 1004.0 hPa 11.0 m/s 0.5 mm
17:00 18.9° 1002.5 hPa 9.3 m/s 0.0 mm 19.2° 1002.0 hPa 11.0 m/s 8.6 mm 19.0° 1003.3 hPa 7.7 m/s 0.1 mm 18.5° 1000.7 hPa 11.3 m/s 0.0 mm 18.7° 1003.6 hPa 9.8 m/s 17.1° 1004.0 hPa 11.0 m/s 0.8 mm
20:00 17.5° 1002.8 hPa 8.1 m/s 0.0 mm 17.7° 1002.8 hPa 7.9 m/s 10.0 mm 17.4° 1003.3 hPa 7.1 m/s 0.0 mm 17.5° 1002.0 hPa 8.6 m/s 0.0 mm 16.5° 1004.2 hPa 7.7 m/s 16.0° 1004.0 hPa 10.0 m/s 0.7 mm
23:00 15.9° 1003.4 hPa 6.6 m/s 0.0 mm 14.9° 1002.9 hPa 6.4 m/s 10.6 mm 15.4° 1004.1 hPa 5.7 m/s 0.0 mm 16.0° 1003.4 hPa 6.8 m/s 0.0 mm 14.8° 1004.7 hPa 6.6 m/s 14.8° 1004.0 hPa 8.0 m/s 0.5 mm
 05:15     21:20    Daglengte: 16:05 Vrijdag 30 Jul
02:00 15.6° 1003.0 hPa 6.5 m/s 0.0 mm 13.9° 1002.3 hPa 5.4 m/s 10.6 mm 14.9° 1004.0 hPa 5.0 m/s 0.0 mm 15.9° 1003.0 hPa 7.7 m/s 0.0 mm 14.3° 1003.9 hPa 6.5 m/s 14.1° 1004.0 hPa 8.0 m/s 0.0 mm
05:00 15.7° 1001.6 hPa 5.9 m/s 0.0 mm 15.2° 999.9 hPa 7.9 m/s 11.3 mm 14.5° 1003.1 hPa 4.6 m/s 0.0 mm 16.4° 1001.5 hPa 7.3 m/s 0.0 mm 14.8° 1002.4 hPa 7.7 m/s 13.7° 1003.0 hPa 9.0 m/s 0.0 mm
08:00 17.2° 1001.1 hPa 7.9 m/s 0.0 mm 17.1° 999.9 hPa 9.6 m/s 16.5 mm 16.9° 1002.7 hPa 7.4 m/s 0.0 mm 17.2° 1001.0 hPa 8.6 m/s 0.0 mm 17.2° 1002.1 hPa 8.7 m/s 14.5° 1002.0 hPa 10.0 m/s 0.3 mm
11:00 19.9° 1001.7 hPa 8.7 m/s 0.0 mm 19.3° 1000.2 hPa 9.1 m/s 17.5 mm 20.3° 1002.6 hPa 7.6 m/s 0.0 mm 19.9° 1001.8 hPa 9.7 m/s 0.0 mm 19.5° 1001.5 hPa 9.7 m/s 17.4° 1002.0 hPa 11.0 m/s 0.0 mm
14:00 22.0° 1002.1 hPa 8.2 m/s 0.0 mm 21.5° 1000.6 hPa 8.9 m/s 17.7 mm 22.1° 1002.4 hPa 7.5 m/s 0.0 mm 21.7° 1002.6 hPa 9.1 m/s 0.0 mm 21.5° 1002.2 hPa 9.7 m/s 19.0° 1002.0 hPa 10.0 m/s 0.5 mm
17:00 21.4° 1001.4 hPa 7.0 m/s 2.6 mm 22.2° 1000.5 hPa 8.0 m/s 17.8 mm 21.8° 1002.9 hPa 6.8 m/s 0.0 mm 21.7° 1002.6 hPa 8.3 m/s 20.6° 1002.0 hPa 9.0 m/s 0.0 mm
20:00 20.1° 1001.7 hPa 6.2 m/s 0.0 mm 20.8° 1000.5 hPa 6.6 m/s 17.8 mm 20.4° 1003.1 hPa 5.2 m/s 0.0 mm 19.4° 1003.0 hPa 5.5 m/s 19.5° 1003.0 hPa 7.0 m/s 0.0 mm
23:00 16.9° 1001.7 hPa 3.2 m/s 0.0 mm 17.3° 1000.7 hPa 3.9 m/s 17.8 mm 16.7° 1003.7 hPa 2.6 m/s 0.0 mm 16.0° 1002.9 hPa 3.2 m/s 17.7° 1003.0 hPa 5.0 m/s 0.0 mm
 05:17     21:18    Daglengte: 16:01 Zaterdag 31 Jul
02:00 16.0° 1000.7 hPa 2.3 m/s 0.0 mm 16.4° 999.6 hPa 3.8 m/s 17.8 mm 15.0° 1003.1 hPa 2.1 m/s 0.0 mm 14.9° 1001.7 hPa 3.8 m/s 16.5° 1002.0 hPa 4.0 m/s 0.5 mm
05:00 15.4° 999.3 hPa 1.9 m/s 7.0 mm 15.5° 998.3 hPa 3.6 m/s 17.8 mm 14.4° 1001.7 hPa 1.2 m/s 0.0 mm 15.5° 999.3 hPa 3.9 m/s 15.4° 1000.0 hPa 5.0 m/s 2.3 mm
08:00 17.3° 998.0 hPa 2.7 m/s 7.9 mm 17.6° 996.8 hPa 4.1 m/s 18.2 mm 17.8° 1000.7 hPa 2.7 m/s 0.2 mm 15.3° 998.1 hPa 5.5 m/s 15.7° 999.0 hPa 6.0 m/s 1.8 mm
11:00 18.8° 998.0 hPa 4.2 m/s 6.3 mm 19.1° 995.8 hPa 5.0 m/s 21.2 mm 19.5° 999.6 hPa 4.4 m/s 0.5 mm 17.5° 997.6 hPa 5.0 m/s 16.8° 998.0 hPa 6.0 m/s 1.0 mm
14:00 17.7° 998.8 hPa 4.6 m/s 9.1 mm 17.4° 996.8 hPa 3.8 m/s 33.7 mm 18.7° 999.2 hPa 4.7 m/s 0.6 mm 18.8° 998.2 hPa 6.7 m/s 17.9° 998.0 hPa 7.0 m/s 1.3 mm
17:00 19.2° 998.5 hPa 4.6 m/s 15.8 mm 21.4° 997.5 hPa 7.1 m/s 44.5 mm 18.7° 998.8 hPa 3.9 m/s 1.4 mm 18.0° 999.4 hPa 6.6 m/s 18.3° 999.0 hPa 7.0 m/s 1.2 mm
20:00 18.0° 999.3 hPa 5.3 m/s 13.1 mm 19.0° 998.8 hPa 7.3 m/s 45.0 mm 17.8° 999.4 hPa 4.8 m/s 0.3 mm 17.0° 1000.8 hPa 7.2 m/s 18.0° 1001.0 hPa 8.0 m/s 0.8 mm
23:00 15.9° 1002.1 hPa 7.1 m/s 14.6 mm 15.8° 1002.3 hPa 6.9 m/s 14.6 mm 16.0° 1002.0 hPa 8.0 m/s 0.0 mm
 05:19     21:16    Daglengte: 15:57 Zondag 01 Aug
02:00 15.4° 1003.0 hPa 6.4 m/s 14.7 mm 15.4° 1003.1 hPa 6.2 m/s 14.7 mm 15.4° 1003.0 hPa 7.0 m/s 0.0 mm
05:00 15.0° 1003.1 hPa 6.1 m/s 14.7 mm 15.5° 1003.2 hPa 5.8 m/s 14.7 mm 14.8° 1003.0 hPa 7.0 m/s 0.0 mm
08:00 15.1° 1003.9 hPa 5.4 m/s 14.7 mm 16.0° 1003.9 hPa 5.2 m/s 14.7 mm 14.8° 1004.0 hPa 6.0 m/s 0.0 mm
11:00 17.0° 1004.8 hPa 5.5 m/s 14.8 mm 17.7° 1004.7 hPa 5.3 m/s 14.8 mm 16.7° 1005.0 hPa 6.0 m/s 0.0 mm
14:00 18.8° 1004.3 hPa 5.0 m/s 15.0 mm 18.6° 1005.0 hPa 4.6 m/s 15.0 mm 19.3° 1004.0 hPa 6.0 m/s 0.0 mm
17:00 19.8° 1005.0 hPa 4.6 m/s 15.1 mm 19.6° 1005.0 hPa 4.5 m/s 15.1 mm 20.5° 1005.0 hPa 5.0 m/s 0.0 mm
20:00 18.2° 1005.0 hPa 3.7 m/s 15.1 mm 17.9° 1005.0 hPa 3.6 m/s 15.1 mm 19.2° 1005.0 hPa 4.0 m/s 0.0 mm
23:00 15.9° 1005.0 hPa 3.6 m/s 7.7 mm 15.6° 1005.2 hPa 3.4 m/s 15.1 mm 16.7° 1005.0 hPa 4.0 m/s 0.2 mm
 05:21     21:14    Daglengte: 15:53 Maandag 02 Aug
02:00 14.2° 1005.0 hPa 3.5 m/s 7.8 mm 13.9° 1005.0 hPa 3.3 m/s 15.2 mm 15.1° 1005.0 hPa 4.0 m/s 0.3 mm
05:00 12.1° 1004.8 hPa 4.0 m/s 15.2 mm 11.6° 1004.7 hPa 3.6 m/s 15.2 mm 13.7° 1005.0 hPa 5.0 m/s 0.0 mm
08:00 15.2° 1004.5 hPa 6.0 m/s 15.3 mm 15.2° 1004.3 hPa 6.1 m/s 15.3 mm 15.2° 1005.0 hPa 6.0 m/s 0.0 mm
11:00 16.0° 1004.7 hPa 7.5 m/s 8.8 mm 15.9° 1004.6 hPa 7.4 m/s 16.4 mm 16.3° 1005.0 hPa 8.0 m/s 1.3 mm
14:00 16.1° 1004.3 hPa 6.9 m/s 10.0 mm 16.9° 1005.4 hPa 6.6 m/s 18.6 mm 15.9° 1004.0 hPa 8.0 m/s 1.5 mm
17:00 16.7° 1006.1 hPa 7.1 m/s 10.9 mm 18.4° 1006.2 hPa 7.3 m/s 20.3 mm 16.1° 1006.0 hPa 7.0 m/s 1.5 mm
20:00 16.2° 1007.0 hPa 5.6 m/s 11.0 mm 16.8° 1007.1 hPa 5.5 m/s 21.6 mm 16.0° 1007.0 hPa 6.0 m/s 0.5 mm
23:00 14.3° 1008.1 hPa 5.1 m/s 22.0 mm 15.0° 1008.4 hPa 4.8 m/s 22.0 mm 14.1° 1008.0 hPa 6.0 m/s 0.0 mm
 05:23     21:12    Daglengte: 15:49 Dinsdag 03 Aug
02:00 13.4° 1009.1 hPa 4.9 m/s 22.0 mm 14.0° 1009.4 hPa 4.6 m/s 22.0 mm 13.2° 1009.0 hPa 6.0 m/s 0.0 mm
05:00 13.0° 1009.2 hPa 4.9 m/s 11.3 mm 14.2° 1009.9 hPa 4.5 m/s 22.2 mm 12.6° 1009.0 hPa 6.0 m/s 0.3 mm
08:00 13.6° 1011.0 hPa 4.3 m/s 22.4 mm 14.6° 1010.9 hPa 4.1 m/s 22.4 mm 13.3° 1011.0 hPa 5.0 m/s 0.0 mm
11:00 15.2° 1011.7 hPa 5.4 m/s 22.6 mm 16.3° 1011.6 hPa 5.1 m/s 22.6 mm 14.9° 1012.0 hPa 6.0 m/s 0.0 mm
14:00 17.0° 1011.2 hPa 5.7 m/s 11.4 mm 17.3° 1012.0 hPa 5.6 m/s 22.6 mm 16.9° 1011.0 hPa 6.0 m/s 0.2 mm
17:00 17.5° 1011.2 hPa 5.5 m/s 22.6 mm 17.8° 1011.9 hPa 5.3 m/s 22.6 mm 17.4° 1011.0 hPa 6.0 m/s 0.0 mm
20:00 16.7° 1012.1 hPa 4.1 m/s 22.7 mm 16.7° 1012.1 hPa 4.1 m/s 22.7 mm
23:00 15.2° 1013.4 hPa 3.5 m/s 22.9 mm 15.2° 1013.4 hPa 3.5 m/s 22.9 mm
 05:25     21:10    Daglengte: 15:45 Woensdag 04 Aug
02:00 13.9° 1014.1 hPa 3.5 m/s 22.9 mm 13.9° 1014.1 hPa 3.5 m/s 22.9 mm
05:00 13.9° 1014.5 hPa 3.4 m/s 22.9 mm 13.9° 1014.5 hPa 3.4 m/s 22.9 mm
08:00 15.1° 1015.3 hPa 3.8 m/s 22.9 mm 15.1° 1015.3 hPa 3.8 m/s 22.9 mm
11:00 18.9° 1015.3 hPa 3.4 m/s 22.9 mm 18.9° 1015.3 hPa 3.4 m/s 22.9 mm
14:00 21.7° 1015.0 hPa 3.8 m/s 22.9 mm 21.7° 1015.0 hPa 3.8 m/s 22.9 mm
17:00 21.3° 1014.8 hPa 4.1 m/s 23.0 mm 21.3° 1014.8 hPa 4.1 m/s 23.0 mm
20:00 19.8° 1014.8 hPa 3.1 m/s 23.1 mm 19.8° 1014.8 hPa 3.1 m/s 23.1 mm
 05:26     21:08    Daglengte: 15:42 Donderdag 05 Aug
02:00 15.8° 1015.4 hPa 3.0 m/s 23.2 mm 15.8° 1015.4 hPa 3.0 m/s 23.2 mm
08:00 18.9° 1014.4 hPa 4.1 m/s 23.2 mm 18.9° 1014.4 hPa 4.1 m/s 23.2 mm
14:00 23.0° 1013.1 hPa 6.7 m/s 23.2 mm 23.0° 1013.1 hPa 6.7 m/s 23.2 mm
20:00 20.9° 1010.9 hPa 6.1 m/s 23.2 mm 20.9° 1010.9 hPa 6.1 m/s 23.2 mm
 05:28     21:06    Daglengte: 15:38 Vrijdag 06 Aug
02:00 19.7° 1007.9 hPa 7.1 m/s 23.2 mm 19.7° 1007.9 hPa 7.1 m/s 23.2 mm
08:00 18.8° 1006.4 hPa 4.2 m/s 23.5 mm 18.8° 1006.4 hPa 4.2 m/s 23.5 mm
14:00 16.2° 1007.4 hPa 3.5 m/s 28.1 mm 16.2° 1007.4 hPa 3.5 m/s 28.1 mm
20:00 16.7° 1007.1 hPa 3.1 m/s 30.6 mm 16.7° 1007.1 hPa 3.1 m/s 30.6 mm
 05:30     21:03    Daglengte: 15:33 Zaterdag 07 Aug
02:00 13.8° 1007.3 hPa 3.5 m/s 30.6 mm 13.8° 1007.3 hPa 3.5 m/s 30.6 mm
08:00 16.5° 1005.7 hPa 1.3 m/s 0.5 mm
14:00 18.9° 1006.1 hPa 2.4 m/s 1.1 mm
20:00 18.2° 1006.3 hPa 2.6 m/s 1.4 mm
 05:32     21:01    Daglengte: 15:29 Zondag 08 Aug
02:00 16.0° 1007.5 hPa 2.9 m/s 0.7 mm
08:00 16.7° 1008.1 hPa 3.4 m/s 0.8 mm
14:00 20.0° 1009.6 hPa 4.0 m/s 1.1 mm
20:00 18.8° 1010.5 hPa 3.7 m/s 1.4 mm
 05:34     20:59    Daglengte: 15:25 Maandag 09 Aug
02:00 16.3° 1011.9 hPa 3.7 m/s 0.7 mm
08:00 17.1° 1011.8 hPa 4.1 m/s 0.8 mm
14:00 20.4° 1012.6 hPa 4.7 m/s 1.3 mm
20:00 19.0° 1012.9 hPa 4.0 m/s 0.7 mm
 05:36     20:57    Daglengte: 15:21 Dinsdag 10 Aug
02:00 16.2° 1013.3 hPa 3.2 m/s 0.4 mm
08:00 17.0° 1012.3 hPa 3.1 m/s 0.8 mm
14:00 19.8° 1012.4 hPa 4.3 m/s 1.4 mm
20:00 18.6° 1012.2 hPa 3.3 m/s 0.8 mm
 05:38     20:55    Daglengte: 15:17 Woensdag 11 Aug
02:00 16.0° 1012.8 hPa 3.5 m/s 0.4 mm
08:00 16.4° 1012.5 hPa 3.9 m/s 0.7 mm
14:00 19.5° 1012.4 hPa 4.3 m/s 1.4 mm
20:00 18.2° 1012.1 hPa 3.8 m/s 1.2 mm
 05:40     20:52    Daglengte: 15:12 Donderdag 12 Aug
02:00 16.1° 1012.5 hPa 4.0 m/s 0.5 mm
08:00 16.5° 1012.3 hPa 4.6 m/s 0.0 mm
14:00 19.3° 1012.6 hPa 4.7 m/s 0.8 mm
FMI Hirlam - 7.5 km EWN WRFDA - 12 km DWD ICON - 7 km GFS - 25 km Basiskaart






























































Updatetijd (Europe/Amsterdam) Resolutie Lengte Stap
FMI Hirlam 13:45, 19:45, 01:45, 07:45 7.5 km 49h 1h
EWN WRFDA 16:30, 22:30, 04:30, 10:30 12 km 73h 1h
DWD ICON 18:00, 00:00, 06:00, 12:00 7 km 75h 1h
GFS 14:15, 20:15, 02:15, 08:15 25 km 237h 3h
30+ mm
25-30 mm
20-25 mm
15-20 mm
10-15 mm
6-10 mm
4-6 mm
2-4 mm
1-2 mm
0.5-1 mm
0.2-0.5 mm
0.1-0.2 mm
30+ mm
25-30 mm
20-25 mm
15-20 mm
10-15 mm
6-10 mm
4-6 mm
2-4 mm
1-2 mm
0.5-1 mm
0.2-0.5 mm
0.1-0.2 mm
Sneeuwval
Natte sneeuw
Hagel
Vorst
30+ mm
25-30 mm
20-25 mm
15-20 mm
10-15 mm
6-10 mm
4-6 mm
2-4 mm
1-2 mm
0.5-1 mm
0.2-0.5 mm
0.1-0.2 mm
Sneeuwval
Natte sneeuw
Hagel
Vorst
Onweer
50 mm
40 mm
30 mm
26 mm
22 mm
18 mm
14 mm
10 mm
9 mm
8 mm
7 mm
6 mm
5 mm
4.5 mm
4 mm
3.5 mm
3 mm
2.5 mm
2 mm
1.5 mm
1 mm
0.8 mm
0.6 mm
0.4 mm
0.2 mm
0.05 mm
35°